| time (UTC) | temp F | wind direction | speed knots | gust knots | rain 1hr in | rain 24hr in | rain mn in | humidity % | barometer mb |
| 20260502130651 | 78 | 193 | 0.0 | 0.9 | 0.00 | 0.00 | 0.00 | 28 | 1021.1 |
| 20260502130154 | 77 | 188 | 0.0 | 1.7 | 0.00 | 0.00 | 0.00 | 27 | 1021.0 |
| 20260502123152 | 76 | 112 | 0.9 | 2.6 | 0.00 | 0.00 | 0.00 | 29 | 1021.5 |
| 20260502122654 | 77 | 226 | 0.0 | 1.7 | 0.00 | 0.00 | 0.00 | 26 | 1021.5 |
| 20260502122153 | 77 | 165 | 0.0 | 1.7 | 0.00 | 0.00 | 0.00 | 29 | 1021.5 |
| 20260502121153 | 75 | 211 | 0.0 | 3.5 | 0.00 | 0.00 | 0.00 | 28 | 1021.6 |
| 20260502120653 | 77 | 141 | 0.0 | 1.7 | 0.00 | 0.00 | 0.00 | 28 | 1021.6 |
| 20260502114640 | 75 | 146 | 0.9 | 2.6 | 0.00 | 0.00 | 0.00 | 28 | 1021.9 |
| 20260502114143 | 75 | 123 | 0.9 | 3.5 | 0.00 | 0.00 | 0.00 | 28 | 1022.1 |
| 20260502112641 | 75 | 156 | 0.9 | 1.7 | 0.00 | 0.00 | 0.00 | 28 | 1022.2 |
| 20260502112142 | 74 | 179 | 0.9 | 1.7 | 0.00 | 0.00 | 0.00 | 30 | 1022.1 |
| 20260502111641 | 73 | 240 | 0.0 | 1.7 | 0.00 | 0.00 | 0.00 | 29 | 1022.3 |
| 20260502111142 | 73 | 114 | 0.0 | 1.7 | 0.00 | 0.00 | 0.00 | 31 | 1022.4 |
| 20260502110641 | 75 | 152 | 0.9 | 0.9 | 0.00 | 0.00 | 0.00 | 26 | 1022.7 |
| 20260502110142 | 76 | 180 | 0.0 | 0.9 | 0.00 | 0.00 | 0.00 | 26 | 1022.6 |
| 20260502105642 | 76 | 124 | 0.0 | 0.9 | 0.00 | 0.00 | 0.00 | 28 | 1022.7 |
| 20260502105142 | 76 | 148 | 0.0 | 0.9 | 0.00 | 0.00 | 0.00 | 26 | 1023.0 |
| 20260502104641 | 75 | 140 | 0.0 | 0.9 | 0.00 | 0.00 | 0.00 | 27 | 1022.9 |
| 20260502104141 | 74 | 159 | 0.0 | 1.7 | 0.00 | 0.00 | 0.00 | 29 | 1022.9 |
| 20260502103641 | 74 | 163 | 0.9 | 0.9 | 0.00 | 0.00 | 0.00 | 28 | 1023.0 |
| 20260502103143 | 74 | 184 | 0.0 | 0.9 | 0.00 | 0.00 | 0.00 | 26 | 1023.1 |
| 20260502102641 | 74 | 212 | 0.0 | 0.9 | 0.00 | 0.00 | 0.00 | 27 | 1023.3 |
| 20260502100640 | 73 | 339 | 0.0 | 0.9 | 0.00 | 0.00 | 0.00 | 30 | 1023.5 |
| 20260502100140 | 73 | 349 | 0.0 | 0.9 | 0.00 | 0.00 | 0.00 | 30 | 1023.3 |
| 20260502090616 | 70 | 279 | 0.0 | 0.9 | 0.00 | 0.00 | 0.00 | 39 | 1023.9 |
| 20260502090110 | 69 | 287 | 0.0 | 0.9 | 0.00 | 0.00 | 0.00 | 35 | 1024.1 |
| 20260502071506 | 54 | 3 | 0.0 | 0.0 | 0.00 | 0.00 | 0.00 | 56 | 1024.8 |
| 20260502071006 | 52 | 3 | 0.0 | 0.9 | 0.00 | 0.00 | 0.00 | 62 | 1024.9 |
| 20260502065953 | 52 | 7 | 0.0 | 0.0 | 0.00 | 0.00 | 0.00 | 62 | 1024.7 |
| 20260502065456 | 49 | 8 | 0.0 | 0.0 | 0.00 | 0.00 | 0.00 | 67 | 1025.0 |
| 20260502064952 | 49 | 8 | 0.0 | 0.0 | 0.00 | 0.00 | 0.00 | 66 | 1025.1 |
| 20260502064439 | 48 | 7 | 0.0 | 0.9 | 0.00 | 0.00 | 0.00 | 69 | 1024.9 |
| 20260502063939 | 47 | 7 | 0.0 | 0.9 | 0.00 | 0.00 | 0.00 | 69 | 1025.0 |
| 20260502063440 | 48 | 7 | 0.0 | 0.0 | 0.00 | 0.00 | 0.00 | 67 | 1025.1 |
| 20260502062940 | 46 | 7 | 0.0 | 0.0 | 0.00 | 0.00 | 0.00 | 72 | 1025.0 |
| 20260502062439 | 47 | 7 | 0.0 | 0.0 | 0.00 | 0.00 | 0.00 | 69 | 1025.1 |
| 20260502061941 | 46 | 7 | 0.0 | 0.0 | 0.00 | 0.00 | 0.00 | 71 | 1025.0 |
| 20260502061442 | 46 | 7 | 0.0 | 0.0 | 0.00 | 0.00 | 0.00 | 72 | 1025.0 |
| 20260502060928 | 45 | 7 | 0.0 | 0.0 | 0.00 | 0.00 | 0.00 | 73 | 1025.0 |
| 20260502060428 | 44 | 7 | 0.0 | 0.0 | 0.00 | 0.00 | 0.00 | 75 | 1025.0 |
| 20260502055928 | 43 | 8 | 0.0 | 0.0 | 0.00 | 0.00 | 0.00 | 78 | 1025.1 |
| 20260502055415 | 42 | 8 | 0.0 | 0.0 | 0.00 | 0.00 | 0.00 | 79 | 1025.0 |
| 20260502054916 | 42 | 8 | 0.0 | 0.0 | 0.00 | 0.00 | 0.00 | 79 | 1025.1 |
| 20260502054416 | 41 | 8 | 0.0 | 0.0 | 0.00 | 0.00 | 0.00 | 81 | 1025.2 |
| 20260502053903 | 41 | 8 | 0.0 | 0.0 | 0.00 | 0.00 | 0.00 | 80 | 1024.9 |
| 20260502053405 | 40 | 8 | 0.0 | 0.9 | 0.00 | 0.00 | 0.00 | 81 | 1024.9 |
| 20260502052906 | 40 | 8 | 0.0 | 0.9 | 0.00 | 0.00 | 0.00 | 83 | 1025.2 |
| 20260502052353 | 39 | 90 | 0.0 | 0.9 | 0.00 | 0.00 | 0.00 | 83 | 1025.1 |
| 20260502051855 | 39 | 128 | 0.0 | 0.0 | 0.00 | 0.00 | 0.00 | 84 | 1025.1 |
| 20260502051353 | 39 | 128 | 0.0 | 0.0 | 0.00 | 0.00 | 0.00 | 84 | 1025.0 |
| 20260502050841 | 39 | 128 | 0.0 | 0.0 | 0.00 | 0.00 | 0.00 | 84 | 1025.0 |
| 20260502050341 | 38 | 128 | 0.0 | 0.0 | 0.00 | 0.00 | 0.00 | 84 | 1025.1 |
| 20260502045840 | 38 | 128 | 0.0 | 0.9 | 0.00 | 0.00 | 0.00 | 84 | 1025.1 |
| 20260502045330 | 38 | 128 | 0.0 | 0.9 | 0.00 | 0.00 | 0.00 | 85 | 1024.9 |
| 20260502044829 | 38 | 130 | 0.0 | 0.0 | 0.00 | 0.00 | 0.00 | 84 | 1025.0 |
| 20260502044327 | 38 | 130 | 0.0 | 1.7 | 0.00 | 0.00 | 0.00 | 84 | 1024.6 |
| 20260502043329 | 38 | 132 | 0.0 | 1.7 | 0.00 | 0.00 | 0.00 | 84 | 1024.9 |
| 20260502042830 | 38 | 347 | 0.0 | 1.7 | 0.00 | 0.00 | 0.00 | 84 | 1025.0 |
| 20260502042329 | 38 | 135 | 0.0 | 0.9 | 0.00 | 0.00 | 0.00 | 85 | 1024.9 |
| 20260502040828 | 38 | 140 | 0.0 | 0.9 | 0.00 | 0.00 | 0.00 | 84 | 1024.9 |
| 20260502035819 | 38 | 28 | 0.0 | 0.9 | 0.00 | 0.00 | 0.00 | 84 | 1024.7 |
| 20260502035306 | 38 | 32 | 0.0 | 0.9 | 0.00 | 0.00 | 0.00 | 83 | 1025.0 |
| 20260502034755 | 38 | 29 | 0.0 | 0.0 | 0.00 | 0.00 | 0.00 | 84 | 1024.7 |
| 20260502034254 | 38 | 29 | 0.0 | 0.9 | 0.00 | 0.00 | 0.00 | 84 | 1024.6 |
| 20260502033757 | 38 | 29 | 0.0 | 0.9 | 0.00 | 0.00 | 0.00 | 84 | 1024.7 |
| 20260502033252 | 38 | 32 | 0.0 | 0.9 | 0.00 | 0.00 | 0.00 | 84 | 1024.7 |
| 20260502032754 | 38 | 32 | 0.0 | 0.9 | 0.00 | 0.00 | 0.00 | 82 | 1024.9 |
| 20260502032254 | 38 | 12 | 0.0 | 0.9 | 0.00 | 0.00 | 0.00 | 83 | 1024.6 |
| 20260502031752 | 38 | 11 | 0.0 | 0.9 | 0.00 | 0.00 | 0.00 | 83 | 1024.6 |
| 20260502031252 | 38 | 37 | 0.0 | 0.9 | 0.00 | 0.00 | 0.00 | 83 | 1024.6 |
| 20260502030741 | 38 | 37 | 0.0 | 0.9 | 0.00 | 0.00 | 0.00 | 82 | 1024.8 |
| 20260502030241 | 38 | 320 | 0.0 | 0.0 | 0.00 | 0.00 | 0.00 | 83 | 1024.7 |
| 20260502025742 | 38 | 320 | 0.0 | 0.9 | 0.00 | 0.00 | 0.00 | 82 | 1024.8 |
| 20260502025241 | 38 | 303 | 0.0 | 0.9 | 0.00 | 0.00 | 0.00 | 82 | 1024.7 |
| 20260502024742 | 39 | 303 | 0.0 | 0.0 | 0.00 | 0.00 | 0.00 | 80 | 1024.8 |
| 20260502024242 | 39 | 320 | 0.0 | 0.9 | 0.00 | 0.00 | 0.00 | 81 | 1024.8 |
| 20260502023740 | 39 | 320 | 0.0 | 0.9 | 0.00 | 0.00 | 0.00 | 80 | 1024.9 |
| 20260502023241 | 39 | 317 | 0.0 | 0.0 | 0.00 | 0.00 | 0.00 | 80 | 1024.7 |
| 20260502022740 | 39 | 317 | 0.0 | 0.0 | 0.00 | 0.00 | 0.00 | 79 | 1024.9 |
| 20260502022244 | 40 | 320 | 0.0 | 1.7 | 0.00 | 0.00 | 0.00 | 78 | 1024.9 |
| 20260502021741 | 39 | 320 | 0.0 | 1.7 | 0.00 | 0.00 | 0.00 | 79 | 1024.9 |
| 20260502021240 | 39 | 317 | 0.0 | 1.7 | 0.00 | 0.00 | 0.00 | 80 | 1024.7 |
| 20260502015741 | 39 | 343 | 0.9 | 1.7 | 0.00 | 0.00 | 0.00 | 80 | 1025.0 |
| 20260502014741 | 39 | 25 | 0.0 | 0.9 | 0.00 | 0.00 | 0.00 | 80 | 1025.2 |
| 20260502014241 | 39 | 26 | 0.0 | 0.9 | 0.00 | 0.00 | 0.00 | 79 | 1025.2 |
| 20260502013744 | 39 | 22 | 0.0 | 0.9 | 0.00 | 0.00 | 0.00 | 79 | 1025.0 |
| 20260502013228 | 40 | 23 | 0.0 | 0.9 | 0.00 | 0.00 | 0.00 | 78 | 1024.9 |
| 20260502012216 | 39 | 359 | 0.0 | 0.9 | 0.00 | 0.00 | 0.00 | 78 | 1025.2 |
| 20260502011716 | 39 | 329 | 0.0 | 0.0 | 0.00 | 0.00 | 0.00 | 80 | 1025.3 |
| 20260502011219 | 39 | 329 | 0.0 | 0.0 | 0.00 | 0.00 | 0.00 | 79 | 1025.2 |
| 20260502010655 | 39 | 329 | 0.0 | 0.0 | 0.00 | 0.00 | 0.00 | 79 | 1025.3 |
| 20260502010152 | 40 | 329 | 0.0 | 0.9 | 0.00 | 0.00 | 0.00 | 78 | 1025.2 |
| 20260502005654 | 40 | 328 | 0.0 | 0.9 | 0.00 | 0.00 | 0.00 | 78 | 1025.0 |
| 20260502005153 | 40 | 325 | 0.0 | 0.9 | 0.00 | 0.00 | 0.00 | 78 | 1025.1 |
| 20260502004155 | 40 | 319 | 0.0 | 0.0 | 0.00 | 0.00 | 0.00 | 76 | 1025.0 |
| 20260502003643 | 40 | 319 | 0.0 | 1.7 | 0.00 | 0.00 | 0.00 | 75 | 1025.1 |
| 20260502003141 | 40 | 318 | 0.9 | 1.7 | 0.00 | 0.00 | 0.00 | 75 | 1025.4 |
| 20260502002641 | 40 | 327 | 0.0 | 0.9 | 0.00 | 0.00 | 0.00 | 75 | 1025.2 |
| 20260502001642 | 41 | 323 | 0.0 | 1.7 | 0.00 | 0.00 | 0.00 | 75 | 1025.4 |
| 20260502001143 | 40 | 334 | 0.0 | 0.0 | 0.00 | 0.00 | 0.00 | 75 | 1025.3 |
| 20260502000641 | 41 | 334 | 0.0 | 0.0 | 0.00 | 0.00 | 0.00 | 74 | 1025.4 |
| 20260502000139 | 41 | 334 | 0.0 | 0.0 | 0.00 | 0.00 | 0.00 | 74 | 1025.3 |
| 20260501235127 | 41 | 333 | 0.0 | 0.9 | 0.00 | 0.00 | 0.00 | 72 | 1025.2 |
| 20260501234615 | 42 | 333 | 0.0 | 1.7 | 0.00 | 0.00 | 0.00 | 73 | 1025.4 |
| 20260501233617 | 41 | 19 | 0.0 | 0.9 | 0.00 | 0.00 | 0.00 | 73 | 1025.1 |
| 20260501233104 | 41 | 11 | 0.0 | 0.9 | 0.00 | 0.00 | 0.00 | 73 | 1025.1 |
| 20260501232605 | 42 | 8 | 0.0 | 1.7 | 0.00 | 0.00 | 0.00 | 71 | 1025.1 |
| 20260501232104 | 42 | 8 | 0.0 | 1.7 | 0.00 | 0.00 | 0.00 | 70 | 1025.1 |
| 20260501231553 | 43 | 28 | 0.0 | 0.9 | 0.00 | 0.00 | 0.00 | 70 | 1025.3 |
| 20260501231053 | 42 | 352 | 0.9 | 0.9 | 0.00 | 0.00 | 0.00 | 70 | 1025.1 |
| 20260501230553 | 42 | 358 | 0.0 | 0.9 | 0.00 | 0.00 | 0.00 | 70 | 1025.2 |
| 20260501230053 | 43 | 358 | 0.0 | 0.9 | 0.00 | 0.00 | 0.00 | 70 | 1025.1 |
| 20260501225052 | 42 | 342 | 0.0 | 0.9 | 0.00 | 0.00 | 0.00 | 70 | 1025.3 |
| 20260501224553 | 43 | 337 | 0.0 | 0.9 | 0.00 | 0.00 | 0.00 | 69 | 1025.0 |
| 20260501224041 | 43 | 340 | 0.0 | 0.9 | 0.00 | 0.00 | 0.00 | 68 | 1024.9 |
| 20260501223040 | 44 | 341 | 0.0 | 1.7 | 0.00 | 0.00 | 0.00 | 66 | 1025.0 |
| 20260501222016 | 44 | 348 | 0.0 | 0.9 | 0.00 | 0.00 | 0.00 | 65 | 1024.9 |
| 20260501221504 | 44 | 341 | 0.0 | 0.9 | 0.00 | 0.00 | 0.00 | 65 | 1025.0 |
| 20260501221003 | 44 | 341 | 0.0 | 0.9 | 0.00 | 0.00 | 0.00 | 65 | 1024.9 |
| 20260501215951 | 45 | 344 | 0.0 | 0.9 | 0.00 | 0.00 | 0.00 | 63 | 1024.5 |
| 20260501215453 | 45 | 345 | 0.0 | 1.7 | 0.00 | 0.00 | 0.00 | 63 | 1024.6 |
| 20260501214953 | 45 | 336 | 0.0 | 1.7 | 0.00 | 0.00 | 0.00 | 61 | 1024.6 |
| 20260501213443 | 45 | 351 | 0.0 | 1.7 | 0.00 | 0.00 | 0.00 | 62 | 1024.6 |
| 20260501212941 | 46 | 336 | 0.9 | 3.5 | 0.00 | 0.00 | 0.00 | 61 | 1024.5 |
| 20260501212442 | 45 | 325 | 2.6 | 3.5 | 0.00 | 0.00 | 0.00 | 61 | 1024.5 |
| 20260501211940 | 45 | 2 | 0.0 | 0.9 | 0.00 | 0.00 | 0.00 | 62 | 1024.4 |
| 20260501210940 | 46 | 309 | 0.0 | 1.7 | 0.00 | 0.00 | 0.00 | 61 | 1024.6 |
| 20260501210445 | 46 | 304 | 0.9 | 1.7 | 0.00 | 0.00 | 0.00 | 60 | 1024.6 |
| 20260501205943 | 46 | 307 | 0.0 | 1.7 | 0.00 | 0.00 | 0.00 | 58 | 1024.4 |
| 20260501205444 | 46 | 306 | 0.0 | 1.7 | 0.00 | 0.00 | 0.00 | 59 | 1024.4 |
| 20260501204927 | 47 | 356 | 0.0 | 1.7 | 0.00 | 0.00 | 0.00 | 60 | 1024.4 |
| 20260501203928 | 47 | 229 | 0.9 | 0.9 | 0.00 | 0.00 | 0.00 | 57 | 1024.6 |
| 20260501203415 | 47 | 170 | 0.9 | 0.9 | 0.00 | 0.00 | 0.00 | 57 | 1024.4 |
| 20260501202917 | 47 | 173 | 0.9 | 0.9 | 0.00 | 0.00 | 0.00 | 56 | 1024.3 |
| 20260501202419 | 48 | 171 | 0.0 | 1.7 | 0.00 | 0.00 | 0.00 | 57 | 1024.3 |
| 20260501201904 | 48 | 173 | 0.0 | 2.6 | 0.00 | 0.00 | 0.00 | 55 | 1024.1 |
| 20260501200353 | 49 | 326 | 0.0 | 2.6 | 0.00 | 0.00 | 0.00 | 54 | 1024.0 |
| 20260501195851 | 49 | 336 | 0.0 | 0.9 | 0.00 | 0.00 | 0.00 | 51 | 1023.9 |
| 20260501194853 | 50 | 12 | 0.0 | 1.7 | 0.00 | 0.00 | 0.00 | 51 | 1023.9 |
| 20260501194355 | 51 | 347 | 0.0 | 1.7 | 0.00 | 0.00 | 0.00 | 51 | 1023.7 |
| 20260501193853 | 51 | 24 | 0.0 | 0.9 | 0.00 | 0.00 | 0.00 | 48 | 1023.8 |
| 20260501193353 | 51 | 104 | 0.0 | 1.7 | 0.00 | 0.00 | 0.00 | 48 | 1023.5 |
| 20260501192855 | 52 | 97 | 0.0 | 1.7 | 0.00 | 0.00 | 0.00 | 46 | 1023.7 |
| 20260501192352 | 52 | 23 | 0.0 | 0.9 | 0.00 | 0.00 | 0.00 | 46 | 1023.5 |
| 20260501191852 | 52 | 35 | 0.9 | 0.9 | 0.00 | 0.00 | 0.00 | 48 | 1023.6 |
| 20260501191354 | 53 | 129 | 0.0 | 0.9 | 0.00 | 0.00 | 0.00 | 44 | 1023.5 |
| 20260501190854 | 53 | 306 | 0.0 | 5.2 | 0.00 | 0.00 | 0.00 | 44 | 1023.4 |
| 20260501190353 | 53 | 308 | 0.0 | 5.2 | 0.00 | 0.00 | 0.00 | 45 | 1023.7 |
| 20260501185854 | 54 | 319 | 0.0 | 1.7 | 0.00 | 0.00 | 0.00 | 43 | 1023.3 |
| 20260501185353 | 54 | 344 | 0.9 | 1.7 | 0.00 | 0.00 | 0.00 | 42 | 1023.2 |
| 20260501184852 | 54 | 28 | 0.0 | 0.9 | 0.00 | 0.00 | 0.00 | 42 | 1023.2 |
| 20260501184352 | 54 | 26 | 0.0 | 0.9 | 0.00 | 0.00 | 0.00 | 40 | 1023.1 |
| 20260501183852 | 54 | 26 | 0.0 | 0.9 | 0.00 | 0.00 | 0.00 | 38 | 1023.0 |
| 20260501182852 | 56 | 358 | 0.0 | 2.6 | 0.00 | 0.00 | 0.00 | 40 | 1023.0 |
| 20260501182353 | 57 | 359 | 0.0 | 2.6 | 0.00 | 0.00 | 0.00 | 40 | 1022.9 |
| 20260501181353 | 59 | 302 | 0.0 | 1.7 | 0.00 | 0.00 | 0.00 | 35 | 1022.7 |
| 20260501180851 | 60 | 309 | 0.0 | 0.9 | 0.00 | 0.00 | 0.00 | 32 | 1022.4 |
| 20260501180323 | 60 | 309 | 0.0 | 0.9 | 0.00 | 0.00 | 0.00 | 30 | 1022.5 |
| 20260501175816 | 61 | 308 | 0.0 | 0.0 | 0.00 | 0.00 | 0.00 | 30 | 1022.5 |
| 20260501175313 | 61 | 309 | 0.0 | 0.0 | 0.00 | 0.00 | 0.00 | 30 | 1022.5 |
| 20260501174807 | 62 | 309 | 0.0 | 0.0 | 0.00 | 0.00 | 0.00 | 30 | 1022.6 |
| 20260501173754 | 62 | 308 | 0.0 | 1.7 | 0.00 | 0.00 | 0.00 | 26 | 1022.4 |
| 20260501173244 | 63 | 311 | 0.0 | 3.5 | 0.00 | 0.00 | 0.00 | 25 | 1022.6 |
| 20260501172745 | 63 | 317 | 0.0 | 3.5 | 0.00 | 0.00 | 0.00 | 25 | 1022.4 |
| 20260501172245 | 63 | 328 | 0.0 | 9.6 | 0.00 | 0.00 | 0.00 | 25 | 1022.3 |
| 20260501171246 | 63 | 5 | 0.9 | 2.6 | 0.00 | 0.00 | 0.00 | 25 | 1022.2 |
| 20260501170744 | 63 | 308 | 1.7 | 7.8 | 0.00 | 0.00 | 0.00 | 25 | 1022.4 |
| 20260501170249 | 64 | 302 | 0.0 | 9.6 | 0.00 | 0.00 | 0.00 | 24 | 1022.3 |
| 20260501165744 | 64 | 331 | 6.1 | 9.6 | 0.00 | 0.00 | 0.00 | 23 | 1022.2 |
| 20260501165242 | 64 | 252 | 1.7 | 14.8 | 0.00 | 0.00 | 0.00 | 23 | 1022.0 |
| 20260501164740 | 64 | 311 | 7.0 | 14.8 | 0.00 | 0.00 | 0.00 | 23 | 1022.0 |
| 20260501164240 | 65 | 331 | 3.5 | 9.6 | 0.00 | 0.00 | 0.00 | 23 | 1022.2 |
| 20260501163738 | 64 | 324 | 2.6 | 9.6 | 0.00 | 0.00 | 0.00 | 23 | 1022.2 |
| 20260501162726 | 64 | 339 | 4.3 | 9.6 | 0.00 | 0.00 | 0.00 | 22 | 1022.1 |
| 20260501162224 | 64 | 69 | 1.7 | 9.6 | 0.00 | 0.00 | 0.00 | 22 | 1022.2 |
| 20260501161714 | 64 | 308 | 0.0 | 5.2 | 0.00 | 0.00 | 0.00 | 22 | 1022.0 |
| 20260501161214 | 65 | 99 | 1.7 | 5.2 | 0.00 | 0.00 | 0.00 | 24 | 1022.2 |
| 20260501160712 | 65 | 308 | 2.6 | 5.2 | 0.00 | 0.00 | 0.00 | 22 | 1022.3 |
| 20260501160208 | 65 | 188 | 0.9 | 6.1 | 0.00 | 0.00 | 0.00 | 24 | 1022.1 |
| 20260501155701 | 65 | 117 | 0.9 | 5.2 | 0.00 | 0.00 | 0.00 | 24 | 1022.1 |
| 20260501155202 | 66 | 278 | 1.7 | 7.8 | 0.00 | 0.00 | 0.00 | 23 | 1022.0 |
| 20260501154701 | 66 | 325 | 2.6 | 7.8 | 0.00 | 0.00 | 0.00 | 22 | 1022.2 |
| 20260501154201 | 66 | 305 | 0.0 | 7.8 | 0.00 | 0.00 | 0.00 | 24 | 1022.2 |
| 20260501153702 | 66 | 229 | 0.9 | 3.5 | 0.00 | 0.00 | 0.00 | 25 | 1022.3 |
| 20260501153204 | 66 | 74 | 0.9 | 6.1 | 0.00 | 0.00 | 0.00 | 24 | 1022.1 |
| 20260501152652 | 66 | 350 | 1.7 | 7.8 | 0.00 | 0.00 | 0.00 | 23 | 1021.9 |
| 20260501151651 | 66 | 150 | 0.9 | 7.0 | 0.00 | 0.00 | 0.00 | 24 | 1022.4 |
| 20260501151149 | 66 | 60 | 0.9 | 5.2 | 0.00 | 0.00 | 0.00 | 23 | 1022.3 |
| 20260501150639 | 66 | 129 | 0.9 | 8.7 | 0.00 | 0.00 | 0.00 | 23 | 1022.2 |
| 20260501145639 | 67 | 173 | 1.7 | 7.0 | 0.00 | 0.00 | 0.00 | 21 | 1022.2 |
| 20260501144641 | 67 | 339 | 2.6 | 11.3 | 0.00 | 0.00 | 0.00 | 21 | 1022.2 |
| 20260501144140 | 67 | 85 | 1.7 | 6.1 | 0.00 | 0.00 | 0.00 | 23 | 1022.4 |
| 20260501143628 | 67 | 344 | 0.9 | 6.1 | 0.00 | 0.00 | 0.00 | 22 | 1022.2 |
| 20260501143125 | 67 | 138 | 1.7 | 8.7 | 0.00 | 0.00 | 0.00 | 22 | 1022.2 |
| 20260501142626 | 67 | 109 | 0.9 | 8.7 | 0.00 | 0.00 | 0.00 | 23 | 1022.2 |
| 20260501142114 | 68 | 97 | 1.7 | 9.6 | 0.00 | 0.00 | 0.00 | 21 | 1022.3 |
| 20260501141613 | 68 | 304 | 1.7 | 11.3 | 0.00 | 0.00 | 0.00 | 21 | 1022.1 |
| 20260501141115 | 67 | 317 | 7.8 | 11.3 | 0.00 | 0.00 | 0.00 | 20 | 1022.1 |
| 20260501140602 | 67 | 199 | 1.7 | 5.2 | 0.00 | 0.00 | 0.00 | 22 | 1022.1 |
| 20260501140104 | 67 | 132 | 2.6 | 5.2 | 0.00 | 0.00 | 0.00 | 21 | 1022.2 |
| 20260501135602 | 67 | 295 | 1.7 | 8.7 | 0.00 | 0.00 | 0.00 | 20 | 1022.2 |
| 20260501135056 | 67 | 324 | 1.7 | 8.7 | 0.00 | 0.00 | 0.00 | 22 | 1022.3 |
| 20260501134052 | 68 | 325 | 1.7 | 9.6 | 0.00 | 0.00 | 0.00 | 20 | 1022.1 |
| 20260501133553 | 68 | 303 | 5.2 | 9.6 | 0.00 | 0.00 | 0.00 | 20 | 1022.1 |